Location: Kellogg
(38.0159°N, 90.0546°W)
Time: 14:29:15
(UTC+00:00)

SR - Visible Passes

Search period start: 13 September 2024 00:00
Search period end: 23 September 2024 00:00
Orbit: 579 x 855 km, 66.7° (Epoch: 12 September)

Date Brightness Start Highest point End Pass type
(mag) Time Alt. Az. Time Alt. Az. Time Alt. Az.
15 Sep ? 03:51:31 10° NNW 03:51:34 10° NNW 03:51:34 10° NNW visible
16 Sep ? 02:59:15 10° N 02:59:58 13° N 02:59:58 13° N visible
17 Sep ? 02:08:14 10° NNE 02:08:23 10° NNE 02:08:23 10° NNE visible
17 Sep ? 03:47:16 10° NNW 03:47:34 12° NNW 03:47:34 12° NNW visible
18 Sep ? 02:54:38 10° N 02:56:00 18° N 02:56:00 18° N visible
19 Sep ? 02:02:34 10° N 02:04:28 16° NNE 02:04:28 16° NNE visible
19 Sep ? 03:43:10 10° NW 03:43:39 13° NW 03:43:39 13° NW visible
20 Sep ? 02:50:12 10° NNW 02:52:09 25° NNW 02:52:09 25° NNW visible
21 Sep ? 01:57:41 10° N 02:00:41 26° NNE 02:00:41 26° NNE visible
21 Sep ? 03:39:15 10° NW 03:39:52 13° NW 03:39:52 13° NW visible
22 Sep ? 01:05:55 10° NNE 01:08:29 14° NE 01:09:17 14° ENE visible
22 Sep ? 02:45:54 10° NNW 02:48:28 32° NW 02:48:28 32° NW visible
